Dewpoint
62 58 59 54 52 45 40 42 25 28 30 24 22 20 20 19 16 6 7 12 15 19 18 13 11 13 9 28 56 58 59 58 60 55 54 63 66 67 67 67 69 70 71 72 73 74 74 75 75 75 75 74 74 74 74 74 74 74 74 74 73 73 72 72 72 72 72 72 72 72 71 71 70 69 69 69 69 68 68 67 67 67 67 67 67 67 68 67 67 68 67 66 67 66 67 67 67
51 51 50 50 45 44 40 39 33 25 30 22 21 20 17 16 4 7 8 9 12 20 15 14 10 12 15 56 58 59 61 62 62 62 64 65 66 67 67 68 69 70 70 71 73 74 74 75 75 75 74 74 74 74 74 74 74 74 74 74 73 73 73 73 72 72 72 72 72 71 71 71 70 69 69 69 68 69 69 67 67 67 68 67 68 68 68 69 68 68 68 67 67 67 67 67 67
53 52 49 46 45 43 38 38 30 25 21 20 21 20 20 2 4 7 9 9 10 11 10 10 9 13 21 56 56 57 58 63 64 64 64 65 63 65 66 68 69 70 70 71 71 72 74 74 75 74 74 74 74 74 74 74 74 74 73 73 73 73 73 72 72 72 72 72 71 71 71 70 70 70 70 68 68 69 70 69 68 68 68 67 67 68 69 70 70 69 68 66 67 67 67 66 66
60 53 47 50 36 37 35 37 33 26 20 16 9 4 6 7 8 8 11 11 10 11 10 6 18 44 53 55 56 57 59 61 64 64 63 64 65 65 66 68 69 69 69 70 70 72 74 74 74 74 74 74 74 74 74 74 74 74 73 73 73 73 73 72 72 72 72 71 71 71 70 70 70 70 70 68 68 69 71 70 68 68 68 68 68 69 70 70 70 70 70 67 66 66 67 66 66
51 49 49 48 41 36 35 30 28 24 21 17 6 3 10 10 10 11 16 14 13 10 15 15 42 58 59 57 56 56 58 62 63 65 64 65 64 65 66 66 66 66 67 69 70 73 74 74 74 74 74 74 74 74 74 74 74 74 74 74 73 73 73 72 72 72 71 71 70 70 70 70 70 70 69 69 68 69 71 71 70 69 68 69 69 70 70 70 70 70 69 69 66 66 66 66 65
46 42 43 45 36 40 31 31 28 19 18 13 6 5 9 9 12 12 10 13 12 11 12 17 31 56 58 59 60 60 62 62 65 65 64 64 64 65 65 66 64 64 66 68 71 73 74 74 74 74 74 74 74 74 74 74 74 73 73 73 73 73 72 72 72 71 71 71 70 70 70 70 70 70 69 69 69 69 70 70 70 69 69 69 69 70 70 70 70 69 69 69 68 66 66 66 65
37 39 38 38 34 34 33 31 27 25 23 17 13 7 8 8 12 12 7 9 17 19 11 24 59 58 57 59 60 63 65 66 65 65 66 65 65 64 65 64 63 64 67 69 71 72 73 73 73 74 74 74 74 74 73 73 73 73 73 73 73 72 72 72 71 71 71 71 70 69 69 70 70 70 70 69 69 70 70 69 69 70 70 71 71 71 70 70 70 70 69 69 69 68 67 66 66
45 40 34 28 28 29 25 24 23 23 20 8 8 9 12 9 10 9 7 10 21 18 15 26 55 57 57 59 59 64 65 66 66 65 65 65 65 65 64 63 63 65 67 68 70 72 74 73 73 73 73 73 73 73 73 73 73 73 73 73 72 72 72 71 71 71 71 71 70 70 70 70 70 70 70 70 70 70 70 70 72 72 72 71 71 70 70 70 70 69 69 69 69 69 68 68 67
40 33 38 30 29 25 17 19 18 17 14 5 11 26 30 13 14 12 10 9 5 17 15 14 54 56 58 60 62 65 65 66 66 67 66 65 65 66 63 63 64 67 68 69 71 72 73 73 73 73 73 73 73 73 73 73 73 73 73 73 72 72 72 72 71 72 71 71 71 71 70 70 70 70 70 71 71 71 71 72 72 72 72 71 70 70 70 70 69 69 69 69 69 69 69 69 68
38 31 31 30 26 26 18 14 13 13 10 8 7 12 10 14 13 15 12 6 12 13 18 32 56 57 59 60 62 64 65 66 66 66 66 67 67 65 64 67 68 68 69 70 71 72 72 74 73 73 73 73 73 73 73 73 73 73 72 72 72 72 72 72 72 72 71 71 71 71 71 71 71 72 71 72 71 72 72 72 72 72 71 70 70 70 70 69 69 69 68 69 69 69 69 69 69
31 28 28 34 29 25 22 14 10 12 1 3 8 10 13 28 13 14 11 6 11 13 36 58 57 58 60 62 62 65 66 66 65 65 67 67 66 65 66 68 68 69 69 70 71 71 72 72 74 73 73 72 72 72 72 72 72 72 72 72 72 72 72 72 72 72 72 72 72 72 72 72 72 71 71 71 71 72 72 72 71 71 70 70 70 69 69 69 69 69 69 69 69 69 69 69 68
30 24 26 23 23 21 17 14 10 2 -1 2 8 10 9 13 11 11 12 12 16 53 54 49 57 60 60 61 61 65 67 67 66 66 66 66 64 64 66 67 68 68 68 69 70 71 71 72 72 73 73 72 72 72 72 72 72 72 72 72 72 72 72 72 72 72 72 72 72 71 71 72 72 71 71 72 72 72 72 71 71 71 70 70 69 69 69 69 69 69 69 69 69 69 69 69 68
26 26 21 20 16 11 8 4 3 17 5 12 15 16 12 8 12 13 14 14 13 47 53 57 58 60 60 61 63 66 65 66 68 69 66 64 64 64 65 66 67 67 68 69 70 70 71 71 71 72 72 72 72 72 72 72 72 72 72 72 72 72 72 72 72 72 72 71 71 71 71 71 72 72 72 72 72 71 71 71 70 70 70 69 69 69 69 69 69 69 69 69 69 69 69 68 68
25 24 25 25 20 13 10 9 8 5 7 9 10 15 15 13 16 15 14 16 41 50 57 62 63 63 62 63 63 64 65 67 67 69 67 64 64 64 65 65 66 67 67 68 69 70 70 70 71 71 71 71 71 72 72 72 72 72 72 72 72 72 72 72 72 72 71 71 71 71 71 71 71 72 72 72 72 71 71 70 70 70 69 69 69 69 70 69 69 69 69 69 68 68 69 68 69
23 25 24 22 14 13 10 8 6 2 8 10 16 16 13 20 16 17 20 22 48 51 55 55 61 57 59 61 61 63 64 66 67 68 67 64 64 65 65 65 66 66 66 67 68 68 68 70 71 71 71 71 70 71 71 72 72 72 72 72 72 72 72 72 72 71 71 71 71 71 71 70 70 71 71 72 71 71 70 70 70 69 69 69 70 70 70 69 69 69 69 69 69 68 68 69 68
16 15 20 27 15 12 10 6 2 2 11 11 15 17 16 15 17 19 26 24 33 56 54 53 56 60 60 61 62 64 65 66 66 67 67 65 65 64 65 65 64 64 66 67 67 67 68 69 70 70 70 70 70 70 70 71 71 72 72 72 72 72 72 72 72 71 71 71 71 70 70 70 70 70 71 71 71 71 71 70 70 69 69 70 70 70 70 69 69 69 69 69 69 69 68 69 69
17 15 16 18 13 12 8 6 7 8 9 10 12 11 11 14 16 25 30 26 48 55 55 55 54 57 58 60 64 64 65 66 67 67 67 65 64 63 64 64 63 64 66 66 66 67 68 68 68 68 69 69 69 70 70 71 71 71 71 72 72 72 71 71 71 70 70 70 70 71 70 70 70 70 70 70 71 71 70 70 70 70 69 70 70 70 69 69 69 69 69 70 70 69 69 69 69
19 19 14 13 12 10 7 5 8 9 7 9 11 14 11 7 8 17 20 28 54 55 56 59 55 60 63 64 64 64 66 67 67 66 65 65 63 62 62 62 63 63 64 65 65 66 67 67 67 68 68 68 69 70 70 71 71 71 71 71 71 70 71 71 70 70 70 70 71 70 70 70 70 69 69 70 70 71 70 70 70 70 70 69 69 69 69 69 69 69 69 69 69 70 69 66 67
13 19 17 10 8 8 7 10 5 6 7 12 16 9 8 17 6 14 13 30 53 53 56 60 59 61 64 64 64 65 66 66 66 66 65 64 63 63 62 62 63 64 64 64 65 66 66 67 67 68 68 68 69 69 70 71 70 70 70 70 70 71 70 71 70 70 70 69 69 69 70 69 68 69 69 70 70 71 70 70 70 69 69 69 69 69 69 69 69 68 69 69 70 70 68 68 65
12 15 13 11 9 7 7 13 10 9 8 8 10 9 11 10 9 12 10 13 51 53 54 57 58 61 63 64 64 65 66 65 63 64 65 64 64 63 63 63 63 63 64 64 65 66 65 66 67 67 67 67 68 68 70 70 69 69 70 69 70 70 69 70 69 69 69 69 69 68 68 68 68 68 69 69 70 69 69 70 69 69 69 69 69 69 69 69 69 69 69 70 70 70 68 67 66
11 10 8 8 8 7 6 10 12 11 9 9 9 8 6 7 15 15 13 13 53 54 57 56 57 60 63 64 64 65 63 62 63 63 63 64 64 66 64 64 63 63 64 65 66 66 66 67 66 67 67 67 67 68 69 68 68 69 69 69 69 68 69 68 68 68 68 68 68 68 68 68 68 68 67 68 68 68 68 68 68 67 67 67 69 66 66 68 67 67 66 68 67 68 68 66 67
9 7 7 7 7 5 10 10 11 13 16 13 11 7 7 7 14 11 10 8 42 53 55 57 58 60 63 63 65 62 61 61 62 63 62 63 62 63 66 64 66 67 66 66 66 66 67 67 67 68 67 67 67 67 69 68 67 66 67 68 68 68 69 68 68 68 68 68 68 68 68 67 67 67 67 68 68 67 67 67 67 66 66 66 68 65 65 66 66 66 67 67 68 68 67 66 69
5 5 5 6 5 3 8 8 13 10 9 10 8 8 7 10 13 11 9 7 37 53 55 56 58 61 63 64 63 61 60 60 60 62 62 63 62 62 64 66 65 65 66 66 66 66 67 67 68 68 67 67 67 68 69 69 68 68 67 67 67 68 68 68 67 67 67 68 68 68 67 67 67 67 67 67 67 67 67 66 66 66 66 66 67 66 64 64 62 63 65 65 66 67 66 67 66
3 3 6 6 6 4 8 11 10 8 11 11 10 11 8 10 8 12 8 12 47 52 53 54 58 59 61 62 62 61 60 59 60 61 63 63 62 63 65 65 65 65 65 64 65 66 67 67 67 67 67 67 67 68 68 68 68 68 69 70 68 70 68 67 67 67 67 68 68 68 68 67 67 66 66 66 67 67 66 66 66 66 66 65 65 65 62 62 61 61 62 62 63 63 64 67 68
1 2 4 5 5 5 6 7 9 12 12 9 9 5 6 8 10 8 7 7 22 50 53 55 57 58 59 62 62 61 61 59 60 61 64 63 63 64 65 65 65 65 64 65 66 65 66 66 66 66 67 67 67 68 68 68 68 68 68 67 67 70 67 67 67 67 67 67 68 68 68 67 67 67 66 66 67 67 66 66 66 65 65 63 64 64 62 61 60 61 62 61 61 61 65 67 66
2 3 5 5 4 5 5 10 12 11 14 11 13 8 7 7 9 6 5 6 16 53 52 55 57 57 60 63 62 62 60 60 60 61 63 63 63 63 64 64 64 64 65 65 66 66 66 66 66 66 67 67 67 68 68 67 67 67 67 67 68 68 67 66 67 67 66 67 67 68 68 67 67 67 67 67 67 66 66 66 66 65 65 63 62 62 62 60 59 60 62 61 60 63 65 66 65
5 7 2 1 2 3 4 6 8 7 8 9 5 7 7 6 7 2 6 5 19 51 52 54 56 57 60 63 63 62 62 62 63 63 62 62 64 64 64 64 63 63 65 65 66 66 66 66 66 67 67 67 67 67 68 67 66 66 67 67 67 66 67 67 67 67 66 66 67 68 68 68 67 67 67 67 66 66 65 65 64 65 65 65 62 62 63 60 60 60 61 62 60 61 64 66 64
7 12 9 8 9 13 12 11 10 12 14 13 12 8 7 4 8 2 4 5 6 48 52 54 54 54 57 62 64 65 64 64 63 62 61 62 61 64 64 63 63 63 64 65 66 66 66 66 66 67 67 67 66 67 68 67 66 66 67 67 67 67 68 67 66 67 67 67 67 68 68 68 68 67 67 66 66 65 65 65 65 65 64 64 63 63 65 64 62 62 62 63 64 64 65 65 65
5 4 2 8 8 8 10 10 9 13 10 10 11 8 5 4 2 2 3 4 8 40 51 53 53 55 54 61 63 63 62 62 62 62 62 62 63 64 63 64 64 62 64 65 66 66 66 65 66 67 67 67 66 66 66 67 67 67 67 67 67 68 68 67 67 67 67 67 67 68 68 67 67 67 66 66 66 65 65 65 65 65 64 66 67 66 67 65 67 66 64 65 64 64 65 65 63
4 3 7 5 5 4 5 8 8 6 8 8 6 5 6 2 2 2 2 3 3 21 50 50 52 54 54 58 61 63 61 61 61 62 62 62 63 64 64 63 63 63 64 65 66 66 66 66 66 66 66 66 65 66 66 66 67 67 67 66 67 67 67 67 67 67 68 67 67 67 67 67 67 67 66 66 65 65 65 66 66 66 66 65 66 66 65 66 67 65 64 64 67 64 64 62 63
21 6 7 9 9 5 4 4 5 4 5 7 5 7 9 6 3 2 2 1 3 38 50 51 53 54 53 58 60 62 61 60 60 60 61 63 64 64 64 64 64 64 65 65 66 66 66 66 67 66 66 66 66 65 66 66 67 67 66 66 66 66 66 66 66 67 67 67 67 67 67 67 66 67 67 66 66 66 65 65 65 66 66 66 66 68 66 65 66 65 63 63 64 64 63 63 63
6 5 7 6 6 4 4 7 3 2 6 6 5 20 5 4 4 3 1 1 1 49 51 51 51 52 55 58 59 58 59 60 61 61 61 63 63 64 64 64 64 64 65 65 66 66 66 66 67 66 66 66 66 66 66 66 67 66 66 66 66 66 66 66 66 67 67 67 67 67 67 67 67 67 67 66 66 66 65 65 66 67 67 67 67 67 66 65 64 65 65 63 62 63 63 63 64
8 7 26 10 4 4 3 3 3 2 3 4 4 5 3 3 3 2 3 -0 6 47 50 51 51 53 57 58 58 58 59 60 60 60 61 63 64 64 64 65 64 64 65 66 66 66 66 67 67 66 66 66 66 66 66 67 66 65 65 65 66 66 65 66 66 67 67 67 67 67 67 67 66 67 67 67 67 65 65 65 66 67 67 67 67 66 67 65 65 65 65 64 63 63 63 63 63
15 7 10 12 8 6 4 1 1 2 2 1 2 2 4 5 5 0 9 10 17 34 51 52 52 54 56 57 58 58 59 59 59 59 60 62 63 64 64 65 64 64 65 66 66 66 66 67 66 66 66 66 67 67 67 67 66 65 65 64 66 66 66 66 66 67 66 66 66 66 67 66 66 66 66 65 65 65 65 65 65 65 66 67 66 66 65 66 65 65 64 64 64 63 63 62 62
16 15 14 12 8 6 5 2 2 3 3 4 5 6 7 6 4 3 12 11 13 24 50 51 51 51 52 55 57 58 58 59 59 59 61 63 62 63 64 64 64 64 66 65 65 66 66 66 67 67 66 66 67 67 67 66 65 65 65 64 65 65 66 66 66 66 66 66 66 66 66 66 66 65 66 65 64 65 65 65 65 65 65 66 66 65 64 65 65 65 63 63 64 64 62 62 63
8 14 11 11 15 11 4 2 5 6 5 6 7 7 6 5 5 7 17 15 14 19 49 50 50 49 50 51 55 56 57 58 58 60 63 61 62 62 63 64 63 64 66 66 65 66 66 66 66 66 67 67 67 67 66 64 64 64 63 63 63 65 65 66 65 66 66 66 66 66 66 65 65 65 65 65 64 64 64 64 65 65 64 65 65 64 63 64 63 63 64 63 63 63 63 63 63
6 5 7 8 9 8 7 5 6 6 6 10 10 12 9 13 13 14 17 18 22 21 28 42 47 47 49 52 53 55 55 56 61 62 61 61 61 62 64 64 63 65 65 65 65 65 66 65 66 66 67 67 67 66 65 64 62 63 63 62 62 63 63 65 65 65 66 66 66 66 66 65 65 65 65 64 64 65 64 65 65 65 64 64 65 64 64 64 64 63 63 62 63 61 62 63 63
11 8 8 12 13 12 9 6 7 10 27 11 16 15 16 15 16 12 12 16 14 19 23 31 44 46 51 53 53 54 53 59 59 59 60 60 61 62 63 63 63 62 63 64 64 64 66 66 66 66 67 66 66 66 65 65 64 63 62 62 63 63 63 64 64 65 65 65 65 65 65 65 65 65 65 65 65 64 64 65 65 64 64 64 65 65 65 65 64 63 63 62 63 62 61 62 63
17 12 11 15 14 14 13 7 8 16 15 16 16 12 17 19 20 19 17 19 20 20 22 26 38 46 51 51 52 53 54 55 57 59 59 60 61 62 63 62 62 62 62 63 64 65 65 66 66 66 66 66 66 66 65 65 64 64 62 62 63 63 64 64 64 64 65 65 65 64 65 65 65 65 65 65 66 65 65 65 64 64 64 64 63 63 64 64 63 63 63 62 61 61 61 62 62
22 19 13 15 15 16 14 20 12 15 26 20 22 16 24 28 25 21 21 13 15 10 14 22 24 45 49 49 49 51 52 54 55 58 58 58 60 61 61 61 61 61 62 63 63 64 64 65 66 66 65 65 65 65 65 65 65 64 63 62 63 63 62 64 64 64 64 65 64 65 65 64 65 64 65 65 66 66 65 64 64 64 64 64 63 63 63 62 62 62 63 62 61 60 59 60 62
31 31 21 17 15 14 13 14 14 20 20 28 18 22 23 22 17 17 17 20 18 16 16 20 24 23 42 49 48 49 52 53 52 56 58 58 58 60 61 61 61 61 62 62 62 63 63 63 64 65 65 64 64 65 65 65 64 63 64 64 64 64 64 64 64 63 64 64 65 65 64 64 65 64 64 65 66 66 66 66 65 65 65 65 63 63 63 62 62 63 63 63 61 60 60 59 60
26 32 24 18 15 12 9 11 9 20 17 24 13 13 19 23 18 15 15 15 14 15 15 13 13 22 23 36 47 49 52 52 51 55 57 58 59 60 61 60 60 61 62 62 63 63 63 63 64 63 64 64 65 65 65 64 63 63 63 63 62 63 62 63 62 63 63 64 64 65 65 65 65 65 65 65 65 66 65 65 65 65 65 65 64 63 63 63 62 62 62 63 62 62 61 60 59
20 23 16 12 11 11 8 5 10 11 9 24 28 14 18 21 20 20 18 13 12 16 19 14 12 13 19 24 28 46 51 52 53 54 56 59 60 60 60 60 59 60 62 62 63 63 62 62 64 63 64 65 65 65 65 64 63 63 63 63 63 62 62 62 63 63 64 64 64 64 64 65 65 65 65 65 65 65 65 65 65 64 65 65 64 63 62 62 62 62 63 63 62 63 62 60 60
17 20 14 11 8 8 9 6 7 9 22 24 22 14 12 11 18 20 18 17 17 17 17 14 11 17 29 43 36 45 50 51 52 53 56 59 61 61 60 61 60 61 62 62 62 62 62 62 63 64 66 65 65 65 65 64 63 63 63 63 62 61 61 61 62 63 63 63 63 63 63 64 65 65 65 64 65 65 65 65 65 64 64 64 64 63 62 62 63 63 62 63 62 63 62 61 60
16 14 12 9 7 8 9 15 18 20 18 11 17 15 9 11 19 17 12 11 12 14 21 25 36 38 42 47 47 47 51 52 54 58 60 61 60 60 62 62 62 62 62 61 61 62 62 62 63 63 65 65 65 65 64 64 63 63 62 62 62 62 62 62 63 63 63 63 62 62 63 64 64 64 65 64 64 64 65 65 65 65 63 64 64 63 63 63 63 62 62 62 62 62 62 61 60
10 10 11 11 9 16 14 19 12 18 14 15 16 24 7 11 24 17 18 12 12 22 35 38 40 42 43 48 52 49 53 55 59 60 60 61 62 62 62 63 62 61 60 61 61 61 62 62 62 63 63 64 64 64 64 64 63 63 62 62 62 62 63 63 63 63 62 63 62 62 62 62 63 64 64 64 64 64 64 65 65 64 63 64 64 63 63 63 63 63 63 63 62 61 61 62 61
10 9 9 8 7 19 19 20 17 16 10 18 21 27 19 10 18 19 16 26 29 31 38 43 46 46 46 47 52 53 54 55 57 58 59 61 63 63 64 62 60 60 60 60 61 61 62 61 62 63 63 64 64 64 64 64 63 63 63 62 62 62 62 62 62 61 62 62 61 61 61 61 62 63 64 65 64 64 64 65 64 64 63 64 64 64 63 64 64 64 63 63 63 62 62 62 61
9 12 12 14 19 18 19 23 18 10 11 16 13 15 23 13 16 16 27 36 38 39 43 46 48 47 47 48 50 54 55 55 56 58 58 61 62 63 63 62 59 60 60 60 60 61 62 62 62 63 63 63 64 64 64 64 63 63 63 63 62 62 62 62 61 61 61 61 61 61 60 60 61 62 63 64 63 63 65 64 64 63 63 63 63 63 64 64 63 63 62 62 62 62 62 62 61
11 15 13 12 14 14 14 11 9 9 11 17 10 7 9 13 17 30 37 41 46 48 49 50 50 51 51 51 51 53 55 56 58 60 60 60 61 61 62 62 62 60 59 60 60 61 62 61 63 64 63 63 63 64 64 64 63 63 63 63 62 62 62 61 61 61 60 61 61 60 60 60 60 61 63 63 62 63 64 64 64 64 64 62 63 63 64 64 63 63 62 63 62 62 62 61 61
11 12 19 13 10 10 6 13 13 13 16 17 17 22 17 15 30 36 41 45 47 48 48 49 50 52 52 53 53 54 54 55 56 57 57 57 58 59 60 60 60 60 59 60 60 60 61 62 63 64 63 63 63 63 63 63 63 63 63 63 62 63 61 61 61 61 60 61 61 61 60 60 60 62 62 62 63 63 64 64 64 64 64 63 63 63 63 63 63 63 63 63 62 62 62 61 61
10 12 12 20 15 15 7 8 8 12 14 23 19 18 18 15 37 37 44 47 49 49 49 49 50 51 52 52 53 54 54 55 56 56 56 57 57 58 58 58 58 58 58 59 59 59 60 59 60 62 62 63 63 63 63 63 63 64 64 63 63 63 62 61 61 61 61 61 61 61 61 61 62 62 62 62 63 63 63 63 63 63 63 64 63 63 63 62 62 63 63 63 62 62 62 61 61
12 12 12 14 17 17 10 16 13 16 15 18 20 17 28 32 43 40 42 46 48 49 49 49 49 50 51 52 53 54 54 54 55 55 55 56 56 57 57 58 57 57 55 56 58 59 59 59 59 59 61 63 63 63 63 63 63 64 63 63 62 62 62 62 61 61 61 61 61 61 62 62 62 61 62 61 62 62 62 63 63 63 63 63 63 63 63 62 62 62 63 62 62 63 61 60 60
22 12 14 13 18 15 15 16 23 17 18 15 18 21 28 34 34 41 43 44 46 48 48 49 49 50 51 51 52 52 53 54 54 54 55 55 56 57 57 56 57 58 57 55 58 59 58 59 59 59 59 61 63 63 63 63 64 63 63 62 62 61 61 62 62 61 61 61 61 61 61 61 61 60 61 61 61 61 61 61 62 63 63 63 62 63 63 63 62 62 62 62 61 62 61 61 61
12 14 15 12 12 16 15 13 15 10 10 15 16 14 28 25 26 42 44 44 46 47 48 49 50 50 50 51 52 52 52 53 54 55 55 56 56 56 57 57 58 57 59 59 58 59 60 60 60 60 59 59 60 61 62 63 64 63 62 62 61 60 61 62 62 62 61 61 61 61 61 60 60 60 60 60 60 60 60 63 60 61 62 62 62 62 62 62 61 61 61 62 62 61 61 61 61
11 12 17 18 19 9 24 9 6 8 9 13 14 31 35 37 36 42 43 45 46 47 48 48 49 50 50 50 51 52 53 53 53 54 55 56 56 56 56 57 58 59 59 59 60 60 60 60 61 61 61 61 61 61 62 62 62 63 62 62 61 60 61 62 61 61 61 60 60 60 60 60 59 59 59 58 58 58 59 60 60 60 61 62 62 62 62 62 62 61 61 61 61 61 60 60 60
12 12 11 16 18 22 14 15 17 18 14 9 15 27 29 39 39 43 44 46 47 47 47 48 49 50 50 50 50 51 52 52 53 53 53 54 54 54 54 55 57 58 59 59 60 60 60 61 61 61 62 63 62 61 62 62 61 63 62 62 61 61 61 60 61 61 60 59 60 60 59 59 59 59 59 58 58 58 58 58 59 59 60 60 61 61 62 61 61 61 61 60 61 61 60 60 60
18 15 15 16 23 27 15 29 14 16 14 17 18 21 28 40 44 45 46 48 48 47 47 47 47 48 50 50 49 49 50 51 51 52 51 51 51 52 52 53 54 56 58 58 59 59 60 60 60 61 60 61 61 62 62 61 62 62 62 61 60 60 59 60 60 60 59 59 59 59 58 59 59 58 58 58 58 58 57 57 58 59 59 59 59 60 61 60 60 60 60 60 60 61 61 59 59
28 26 26 27 28 27 14 18 22 24 16 17 16 24 34 42 46 46 46 47 47 47 46 46 46 46 47 48 47 48 48 49 50 50 48 48 48 49 50 51 52 52 54 57 58 58 60 60 61 61 61 60 61 62 62 62 60 60 61 60 59 59 59 60 60 59 59 59 57 58 58 58 57 57 58 57 56 57 57 57 57 57 58 59 59 59 60 61 61 60 60 61 60 61 60 59 58